Weather observations for the past three days for
San Jose Del Cabo
Imperial (Metric)
Date Time (mst) Wind (mph) Vis. (mi.) Weather Sky Cond. Temperature (ºF) Relative Humidity Wind Chill (°F) Heat Index (°F) Pressure Precipitation (in)
Air Dwpt 6 hour altimeter (in) sea level (mb) 1 hr 3 hr 6 hr
Max. Min.
07 09:44 N 5 10.00 A Few Clouds FEW250 82.4 60.8 48% 83 29.96 0.0
07 08:43 NW 9 10.00 Partly Cloudy SCT120 SCT250 77 62.6 61% 79 29.97 0.0
07 07:45 NW 9 10.00 Partly Cloudy SCT120 SCT250 75.2 64.4 69% 77 29.96 1012.5
07 06:45 W 5 10.00 Partly Cloudy SCT120 SCT250 73.4 64.4 74% 29.96 0.0
07 05:48 NW 5 10.00 Mostly Cloudy BKN120 BKN250 73.4 62.6 69% 29.93 0.0
07 04:40 W 6 10.00 Mostly Cloudy BKN250 73.4 62.6 69% 29.91 1010.8
07 03:42 NW 5 10.00 Mostly Cloudy BKN250 73.4 59 61% 29.91 0.0
07 02:42 NW 5 10.00 Mostly Cloudy BKN200 73.4 62.6 69% 29.9 0.0
07 01:40 W 5 10.00 Mostly Cloudy BKN250 73.4 64.4 74% 29.91 0.0
07 00:41 W 3 10.00 Mostly Cloudy BKN200 73.4 64.4 74% 29.93 0.0
06 23:40 Calm 10.00 Partly Cloudy SCT200 73.4 64.4 74% 29.95 0.0
06 22:42 Calm 10.00 A Few Clouds FEW200 75.2 64.4 69% 77 29.96 1012.2
06 21:43 SE 2 10.00 Partly Cloudy SCT200 75.2 66.2 74% 77 29.96 0.0
06 20:43 SE 7 10.00 A Few Clouds FEW100 FEW200 77 66.2 69% 79 29.96 0.0
06 19:43 S 3 10.00 Mostly Cloudy FEW100 BKN200 77 66.2 69% 79 29.94 1011.9
06 18:44 SE 9 10.00 Partly Cloudy SCT100 SCT200 78.8 64.4 61% 81 29.94 0.0
06 17:50 SE 10 10.00 Partly Cloudy SCT100 SCT200 78.8 64.4 61% 81 29.93 0.0
06 16:55 SE 9 10.00 Partly Cloudy FEW040 FEW080 SCT200 82.4 62.6 51% 83 29.92 1011.0
06 15:43 S 17 10.00 Partly Cloudy FEW040 SCT200 82.4 64.4 55% 84 29.93 0.0
06 14:42 SE 16 10.00 A Few Clouds FEW030 82.4 66.2 58% 85 29.93 0.0
06 13:45 SE 17 10.00 Clear SKC 84.2 66.2 55% 87 29.94 1012.0
06 12:47 SE 17 10.00 Clear SKC 84.2 64.4 51% 86 29.96 0.0
06 11:40 SE 17 10.00 Clear SKC 84.2 64.4 51% 86 29.97 0.0
06 10:48 SE 12 10.00 A Few Clouds FEW120 87.8 53.6 31% 86 29.97 1012.7
06 09:43 N 6 10.00 Partly Cloudy FEW120 SCT250 84.2 57.2 40% 83 29.98 0.0
06 07:51 NW 9 10.00 A Few Clouds FEW120 78.8 64.4 61% 81 29.97 1012.8
06 06:45 W 7 10.00 Partly Cloudy FEW120 SCT250 73.4 60.8 65% 29.96 0.0
06 05:45 W 7 10.00 Partly Cloudy FEW120 SCT250 68 59 73% 29.95 0.0
06 04:41 NW 5 10.00 Partly Cloudy SCT250 69.8 59 69% 29.93 1011.4
06 03:43 W 5 10.00 A Few Clouds FEW250 68 60.8 78% 29.92 0.0
06 02:42 NW 6 10.00 Clear SKC 68 60.8 78% 29.92 0.0
06 01:40 NW 2 10.00 Clear SKC 69.8 62.6 78% 29.92 0.0
06 00:40 Calm 10.00 Clear SKC 71.6 62.6 73% 29.93 0.0
05 23:40 Calm 10.00 A Few Clouds FEW250 73.4 62.6 69% 29.94 0.0
05 22:43 W 3 10.00 A Few Clouds FEW250 73.4 62.6 69% 29.96 1012.3
05 21:40 S 5 10.00 A Few Clouds FEW250 73.4 64.4 74% 29.95 0.0
05 20:41 SE 3 10.00 Partly Cloudy SCT250 75.2 64.4 69% 77 29.94 0.0
05 19:43 S 3 10.00 Partly Cloudy SCT250 75.2 64.4 69% 77 29.92 1011.3
05 18:40 SE 8 10.00 Partly Cloudy SCT250 77 64.4 65% 79 29.91 0.0
05 17:51 S 9 10.00 Mostly Cloudy BKN250 78.8 66.2 65% 81 29.89 0.0
05 16:40 SE 13 10.00 Mostly Cloudy BKN250 82.4 66.2 58% 85 29.88 1009.8
05 15:46 S 10 10.00 Mostly Cloudy BKN250 84.2 64.4 51% 86 29.88 0.0
05 14:57 SE 14 10.00 Partly Cloudy SCT250 84.2 64.4 51% 86 29.89 0.0
05 13:54 SE 16 10.00 Partly Cloudy SCT250 82.4 60.8 48% 83 29.92 1011.0
05 12:48 SE 14 10.00 Partly Cloudy SCT250 86 57.2 38% 85 29.93 0.0
05 11:44 SE 14 10.00 Mostly Cloudy BKN250 82.4 60.8 48% 83 29.95 0.0
05 10:47 SE 14 10.00 Mostly Cloudy BKN250 82.4 64.4 55% 84 29.96 1012.5
05 09:51 SE 14 10.00 Mostly Cloudy BKN250 82.4 60.8 48% 83 29.96 0.0
05 08:51 Calm 10.00 Mostly Cloudy BKN250 78.8 60.8 54% 80 29.97 0.0
05 07:54 Calm 10.00 A Few Clouds FEW250 75.2 59 57% 78 29.96 1012.6
05 06:44 NW 6 10.00 Clear SKC 69.8 55.4 60% 29.96 0.0
05 05:45 NW 7 10.00 Clear SKC 64.4 57.2 78% 29.94 0.0
05 04:42 N 5 10.00 Clear SKC 66.2 59 78% 29.93 0.0
05 03:42 W 5 10.00 Clear SKC 66.2 55.4 68% 29.92 0.0
05 02:42 W 6 10.00 Clear SKC 66.2 59 78% 29.91 0.0
05 01:41 NW 5 10.00 Clear SKC 66.2 59 78% 29.93 0.0
05 00:41 Calm 10.00 Clear SKC 68 59 73% 29.93 0.0
04 23:40 Calm 10.00 Clear SKC 68 60.8 78% 29.93 0.0
04 22:40 Calm 10.00 Clear SKC 69.8 62.6 78% 29.93 0.0
04 21:41 NW 3 10.00 Mostly Cloudy BKN250 73.4 64.4 74% 29.93 0.0
04 20:40 SW 2 10.00 Mostly Cloudy BKN250 73.4 62.6 69% 29.93 0.0
04 19:42 S 5 10.00 Mostly Cloudy BKN250 73.4 64.4 74% 29.92 1011.0
04 18:41 SE 8 10.00 Mostly Cloudy BKN250 75.2 62.6 65% 77 29.9 0.0
04 17:41 SE 12 10.00 Partly Cloudy SCT250 77 62.6 61% 79 29.89 0.0
04 16:47 SE 14 10.00 Partly Cloudy SCT250 82.4 60.8 48% 83 29.89 1010.2
04 15:45 SE 15 10.00 Partly Cloudy SCT250 84.2 59 43% 84 29.9 0.0
04 14:41 SE 14 10.00 Partly Cloudy SCT250 84.2 60.8 45% 84 29.92 0.0
04 13:43 SE 18 10.00 Partly Cloudy SCT250 82.4 60.8 48% 83 29.95 1011.9
04 12:52 SE 12 G 23 10.00 Mostly Cloudy BKN250 84.2 59 43% 84 29.95 0.0
04 11:46 S 12 10.00 Mostly Cloudy BKN250 84.2 59 43% 84 29.95 0.0
04 10:41 SE 14 10.00 Mostly Cloudy BKN250 84.2 60.8 45% 84 29.97 1012.6
Date Time (mst) Wind (mph) Vis. (mi.) Weather Sky Cond. Air Dwpt Max. Min. Relative Humidity Wind Chill (°F) Heat Index (°F) altimeter (in) sea level (mb) 1 hr 3 hr 6 hr
6 hour
Temperature (ºF) Pressure Precipitation (in)